Fredericksburg, VA

6:42 PM EST on November 20, 2017 (GMT -0500)
Shannon

Weather History for KEZF - January, 2013

Change the Weather History Date:

Thursday, January 3, 2013

  Actual Average (KNYG) Record (KNYG)
Temperature  
Mean Temperature 34 °F -  
Max Temperature 41 °F 43 °F 69 °F (2000)
Min Temperature 28 °F 28 °F 12 °F (2001)
Degree Days  
Heating Degree Days 30    
Moisture  
Dew Point 22 °F    
Average Humidity 62    
Maximum Humidity 85    
Minimum Humidity 43    
Precipitation  
Precipitation 0.00 in - - ()
Sea Level Pressure  
Sea Level Pressure 30.21 in    
Wind  
Wind Speed 1 mph (SW)    
Max Wind Speed 7 mph    
Max Gust Speed -    
Visibility 10 miles    
Events      
Averages and records for this station are not official NWS values.
T = Trace of Precipitation, MM = Missing Value Source: NWS Daily Summary

Daily Weather History Graph

Daily Weather History Graph

Search for Another Location

Airport or City:

Trip Planner

Search our weather history database for the weather conditions in past years. The results will help you decide how hot, cold, wet, or windy it might be!

Date:

Astronomy

Jan. 03, 2013 Rise Set
Actual Time 7:26 AM EST 5:02 PM EST
Civil Twilight 6:57 AM EST 5:31 PM EST
Nautical Twilight 6:24 AM EST 6:04 PM EST
Astronomical Twilight 5:52 AM EST 6:36 PM EST
Moon 11:29 PM EST (1/3) 10:43 AM EST (1/3)
Length of Visible Light 10h 34m
Length of Day
9h 35m
Waning Gibbous, 65% of the Moon is Illuminated
Jan 3
Waning Gibbous
Jan 4
Last Quarter
Jan 11
New
Jan 18
First Quarter
Jan 26
Full

Hourly Weather History & Observations

Time (EST) Temp. Windchill Dew Point Humidity Pressure Visibility Wind Dir Wind Speed Gust Speed Precip Events Conditions
12:15 AM 32.9 °F - 22.6 °F 66% 30.23 in 10.0 mi Calm Calm - N/A   Clear
12:35 AM 32.5 °F 29.3 °F 22.1 °F 65% 30.22 in 10.0 mi NNE 3.5 mph - N/A   Clear
12:55 AM 32.0 °F - 24.3 °F 73% 30.22 in 10.0 mi Calm Calm - N/A   Scattered Clouds
1:15 AM 32.0 °F - 21.7 °F 66% 30.22 in 10.0 mi Calm Calm - N/A   Mostly Cloudy
1:35 AM 32.0 °F - 25.0 °F 75% 30.21 in 10.0 mi Calm Calm - N/A   Overcast
1:55 AM 32.9 °F - 21.6 °F 63% 30.22 in 10.0 mi Calm Calm - N/A   Overcast
2:15 AM 33.3 °F - 19.4 °F 57% 30.23 in 10.0 mi Calm Calm - N/A   Overcast
2:35 AM 32.9 °F - 25.7 °F 75% 30.24 in 10.0 mi Calm Calm - N/A   Overcast
2:55 AM 33.1 °F - 23.7 °F 68% 30.23 in 10.0 mi Calm Calm - N/A   Overcast
3:15 AM 33.1 °F - 24.4 °F 71% 30.23 in 10.0 mi Calm Calm - N/A   Overcast
3:35 AM 33.4 °F - 23.4 °F 67% 30.22 in 10.0 mi Calm Calm - N/A   Overcast
3:55 AM 33.3 °F - 21.2 °F 61% 30.22 in 10.0 mi Calm Calm - N/A   Overcast
4:15 AM 33.3 °F - 21.0 °F 61% 30.21 in 10.0 mi Calm Calm - N/A   Overcast
4:35 AM 33.3 °F - 21.4 °F 62% 30.21 in 10.0 mi Calm Calm - N/A   Overcast
4:55 AM 33.3 °F - 22.5 °F 65% 30.21 in 10.0 mi Calm Calm - N/A   Overcast
5:15 AM 33.4 °F - 20.7 °F 59% 30.22 in 10.0 mi Calm Calm - N/A   Overcast
5:35 AM 33.4 °F - 19.2 °F 56% 30.23 in 10.0 mi Calm Calm - N/A   Overcast
5:55 AM 33.8 °F - 18.7 °F 54% 30.22 in 10.0 mi Calm Calm - N/A   Overcast
6:15 AM 33.6 °F 30.6 °F 18.3 °F 54% 30.23 in 10.0 mi NNE 3.5 mph - N/A   Overcast
6:35 AM 33.4 °F - 19.2 °F 56% 30.24 in 10.0 mi Calm Calm - N/A   Overcast
6:55 AM 33.8 °F - 19.9 °F 57% 30.25 in 10.0 mi Calm Calm - N/A   Overcast
7:15 AM 33.8 °F - 19.8 °F 56% 30.25 in 10.0 mi Calm Calm - N/A   Overcast
7:35 AM 33.4 °F - 19.2 °F 56% 30.25 in 10.0 mi Calm Calm - N/A   Overcast
8:15 AM 33.4 °F - 18.9 °F 55% 30.26 in 10.0 mi Calm Calm - N/A   Overcast
8:35 AM 33.3 °F - 21.9 °F 63% 30.25 in 10.0 mi Calm Calm - N/A   Mostly Cloudy
8:55 AM 33.6 °F - 20.5 °F 59% 30.25 in 10.0 mi Calm Calm - N/A   Mostly Cloudy
9:15 AM 33.8 °F - 20.1 °F 57% 30.25 in 10.0 mi Calm Calm - N/A   Mostly Cloudy
9:35 AM 34.3 °F - 19.0 °F 54% 30.26 in 10.0 mi Calm Calm - N/A   Overcast
9:55 AM 34.7 °F - 18.7 °F 52% 30.26 in 10.0 mi Calm Calm - N/A   Mostly Cloudy
10:15 AM 35.1 °F - 19.0 °F 52% 30.26 in 10.0 mi Calm Calm - N/A   Clear
10:35 AM 36.1 °F - 19.8 °F 51% 30.26 in 10.0 mi Calm Calm - N/A   Clear
10:55 AM 36.1 °F - 19.2 °F 50% 30.25 in 10.0 mi Calm Calm - N/A   Clear
11:15 AM 36.7 °F - 19.9 °F 51% 30.24 in 10.0 mi Calm Calm - N/A   Clear
11:35 AM 36.9 °F - 19.6 °F 50% 30.23 in 10.0 mi Calm Calm - N/A   Clear
11:55 AM 37.4 °F - 19.6 °F 49% 30.22 in 10.0 mi Calm Calm - N/A   Clear
12:15 PM 37.9 °F 34.4 °F 19.9 °F 48% 30.21 in 10.0 mi South 4.6 mph - N/A   Clear
12:35 PM 38.3 °F - 19.6 °F 47% 30.19 in 10.0 mi Calm Calm - N/A   Clear
12:55 PM 38.7 °F - 19.9 °F 47% 30.19 in 10.0 mi Calm Calm - N/A   Clear
1:15 PM 39.7 °F 36.5 °F 20.1 °F 45% 30.18 in 10.0 mi SW 4.6 mph - N/A   Clear
1:35 PM 40.3 °F 37.1 °F 20.7 °F 46% 30.17 in 10.0 mi WSW 4.6 mph - N/A   Clear
1:55 PM 40.8 °F 36.9 °F 20.5 °F 44% 30.16 in 10.0 mi WSW 5.8 mph - N/A   Clear
2:15 PM 40.6 °F 38.6 °F 20.8 °F 45% 30.16 in 10.0 mi WSW 3.5 mph - N/A   Clear
2:35 PM 41.4 °F 36.8 °F 20.3 °F 43% 30.17 in 10.0 mi SSW 6.9 mph - N/A   Clear
2:55 PM 41.9 °F - 21.2 °F 44% 30.16 in 10.0 mi Calm Calm - N/A   Clear
3:15 PM 41.4 °F 39.4 °F 21.0 °F 44% 30.17 in 10.0 mi SW 3.5 mph - N/A   Clear
3:35 PM 41.0 °F 39.0 °F 21.7 °F 46% 30.17 in 10.0 mi WSW 3.5 mph - N/A   Clear
3:55 PM 41.5 °F 39.6 °F 21.6 °F 45% 30.17 in 10.0 mi SSW 3.5 mph - N/A   Clear
4:15 PM 41.4 °F 38.4 °F 21.2 °F 45% 30.18 in 10.0 mi WSW 4.6 mph - N/A   Clear
4:35 PM 40.6 °F 37.5 °F 21.7 °F 47% 30.18 in 10.0 mi SW 4.6 mph - N/A   Clear
4:55 PM 39.9 °F 37.8 °F 21.6 °F 48% 30.18 in 10.0 mi SSW 3.5 mph - N/A   Clear
5:15 PM 35.1 °F 31.0 °F 22.6 °F 61% 30.19 in 10.0 mi South 4.6 mph - N/A   Clear
5:55 PM 33.3 °F - 22.6 °F 65% 30.19 in 10.0 mi Calm Calm - N/A   Clear
6:15 PM 32.2 °F - 24.1 °F 72% 30.19 in 10.0 mi Calm Calm - N/A   Clear
6:35 PM 31.8 °F 28.5 °F 25.0 °F 76% 30.19 in 10.0 mi South 3.5 mph - N/A   Clear
6:55 PM 31.1 °F - 25.3 °F 79% 30.19 in 10.0 mi Calm Calm - N/A   Clear
7:15 PM 31.6 °F - 23.5 °F 72% 30.20 in 10.0 mi Calm Calm - N/A   Clear
7:35 PM 30.7 °F - 23.7 °F 75% 30.19 in 10.0 mi Calm Calm - N/A   Clear
7:55 PM 31.1 °F - 24.8 °F 77% 30.20 in 10.0 mi Calm Calm - N/A   Clear
8:15 PM 28.8 °F - 23.5 °F 81% 30.20 in 10.0 mi Calm Calm - N/A   Clear
8:35 PM 29.1 °F 25.4 °F 23.9 °F 81% 30.19 in 10.0 mi SSW 3.5 mph - N/A   Clear
8:55 PM 29.8 °F - 25.0 °F 82% 30.19 in 10.0 mi Calm Calm - N/A   Clear
9:15 PM 31.5 °F - 24.6 °F 76% 30.20 in 10.0 mi Calm Calm - N/A   Clear
9:35 PM 30.2 °F - 25.5 °F 83% 30.20 in 10.0 mi Calm Calm - N/A   Clear
9:55 PM 29.7 °F 26.1 °F 24.3 °F 80% 30.19 in 10.0 mi SSW 3.5 mph - N/A   Clear
10:15 PM 29.3 °F - 24.4 °F 82% 30.19 in 10.0 mi Calm Calm - N/A   Clear
10:35 PM 30.2 °F - 25.3 °F 82% 30.19 in 10.0 mi Calm Calm - N/A   Clear
10:55 PM 31.6 °F - 25.5 °F 78% 30.19 in 10.0 mi Calm Calm - N/A   Clear
11:15 PM 30.2 °F - 25.0 °F 81% 30.19 in 10.0 mi Calm Calm - N/A   Clear
11:35 PM 29.8 °F 26.3 °F 24.6 °F 81% 30.19 in 10.0 mi WSW 3.5 mph - N/A   Clear
11:55 PM 29.7 °F - 25.5 °F 85% 30.19 in 10.0 mi Calm Calm - N/A   Clear